sat.trackr.live / text

‹ back to catalog

MKA-PN 1

NORAD 38711 · 2012-039E

PAYLOAD ACTIVE UNKNOWN

§ Identity

Operator
Country
CIS
Launch date
2012-07-22
Launch site
TYMSC
Launch vehicle
Mass (kg)
RCS (m²)
1.08

External: N2YO · Heavens-Above · Gunter

§ Orbital elements

Epoch: 2026-05-25T00:34:01.136064Z

Period
101.02 min
Inclination
98.9691°
Eccentricity
0.0010643
Mean motion
14.25418664 rev/d
Perigee alt
799.4 km
Apogee alt
814.7 km
Semi-major
7,185.2 km
B*
6.9377e-5
RAAN
261.5380°
Arg perigee
231.6727°
Mean anomaly
128.3496°
Rev number
71,954

§ Raw data

MKA-PN 11 38711U 12039E   26145.02362426  .00000117  00000+0  69377-4 0  99922 38711  98.9691 261.5380 0010643 231.6727 128.3496 14.25418664719541

JSON: /api/v1/satellites/38711 · /tle

For live sub-satellite position, see the globe view (requires WebGL).

§ Visibility from observer

Set your observer location to see the next 7 days of passes ≥ 10°. The values pass through the URL so the page stays shareable.

No JS? Fill the form by hand. The geolocation button needs JavaScript.